SAS430 EKCH-ESGG

Flight info

Callsign SAS430
Flight time N/A
Altitude 22000
Route VEDAR L997 RISMA
Aircraft A320/M-SDE3FGHIRWY/LB1

Departure

Time 2026-05-06 12:17
Airport Copenhagen Kastrup Airport (EKCH)

Arrival

Time N/A
Airport Göteborg Landvetter Airport (ESGG)
Time Latitude Longitude Altitude Speed Heading
2026-05-06 12:05 55.62670 12.64315 27 ft 4 kts 21°
2026-05-06 12:05 55.62645 12.64297 27 ft 4 kts 25°
2026-05-06 12:05 55.62623 12.64276 26 ft 2 kts 34°
2026-05-06 12:05 55.62606 12.64251 26 ft 4 kts 60°
2026-05-06 12:06 55.62601 12.64210 27 ft 4 kts 107°
2026-05-06 12:06 55.62610 12.64177 24 ft 4 kts 123°
2026-05-06 12:06 55.62625 12.64137 25 ft 4 kts 123°
2026-05-06 12:06 55.62630 12.64123 26 ft 0 kts 123°
2026-05-06 12:09 55.62627 12.64130 24 ft 1 kts 123°
2026-05-06 12:09 55.62623 12.64141 25 ft 1 kts 123°
2026-05-06 12:10 55.62613 12.64168 25 ft 4 kts 122°
2026-05-06 12:10 55.62594 12.64219 24 ft 6 kts 124°
2026-05-06 12:10 55.62567 12.64292 24 ft 8 kts 123°
2026-05-06 12:10 55.62531 12.64390 24 ft 11 kts 122°
2026-05-06 12:11 55.62478 12.64485 24 ft 11 kts 174°
2026-05-06 12:11 55.62396 12.64449 24 ft 13 kts 195°
2026-05-06 12:11 55.62300 12.64404 23 ft 15 kts 195°
2026-05-06 12:11 55.62235 12.64389 23 ft 7 kts 164°
2026-05-06 12:12 55.62176 12.64419 22 ft 9 kts 163°
2026-05-06 12:12 55.62114 12.64436 23 ft 9 kts 172°
2026-05-06 12:12 55.62050 12.64458 26 ft 10 kts 169°
2026-05-06 12:12 55.61983 12.64480 24 ft 10 kts 169°
2026-05-06 12:13 55.61912 12.64505 24 ft 11 kts 168°
2026-05-06 12:13 55.61834 12.64533 24 ft 12 kts 168°
2026-05-06 12:13 55.61744 12.64559 24 ft 14 kts 170°
2026-05-06 12:13 55.61673 12.64571 24 ft 4 kts 222°
2026-05-06 12:14 55.61641 12.64524 24 ft 11 kts 213°
2026-05-06 12:14 55.61561 12.64431 24 ft 15 kts 213°
2026-05-06 12:14 55.61466 12.64322 24 ft 17 kts 213°
2026-05-06 12:14 55.61357 12.64198 25 ft 20 kts 213°
2026-05-06 12:15 55.61237 12.64059 24 ft 22 kts 213°
2026-05-06 12:15 55.61106 12.63908 24 ft 24 kts 213°
2026-05-06 12:15 55.60961 12.63741 26 ft 26 kts 213°
2026-05-06 12:15 55.60830 12.63590 24 ft 11 kts 212°
2026-05-06 12:16 55.60763 12.63648 24 ft 12 kts 130°
2026-05-06 12:16 55.60701 12.63772 24 ft 15 kts 133°
2026-05-06 12:16 55.60706 12.63915 28 ft 14 kts 41°
2026-05-06 12:16 55.60790 12.64045 26 ft 24 kts 42°
2026-05-06 12:17 55.61099 12.64524 23 ft 92 kts 41°
2026-05-06 12:17 55.61709 12.65465 24 ft 139 kts 41°
2026-05-06 12:17 55.62520 12.66744 258 ft 161 kts 43°
2026-05-06 12:17 55.63364 12.68077 971 ft 166 kts 44°
2026-05-06 12:18 55.64252 12.69422 1644 ft 170 kts 44°
2026-05-06 12:18 55.65219 12.70648 2298 ft 174 kts 27°
2026-05-06 12:18 55.66499 12.70932 2623 ft 201 kts 358°
2026-05-06 12:18 55.67878 12.70024 2941 ft 227 kts 323°
2026-05-06 12:19 55.69008 12.67863 3293 ft 251 kts 314°
2026-05-06 12:19 55.70303 12.65613 3863 ft 268 kts 320°
2026-05-06 12:19 55.71713 12.63425 4784 ft 271 kts 322°
2026-05-06 12:19 55.73149 12.61244 5752 ft 273 kts 322°
2026-05-06 12:20 55.74576 12.59058 6677 ft 274 kts 320°
2026-05-06 12:20 55.76014 12.56816 7570 ft 276 kts 319°
2026-05-06 12:20 55.77453 12.54525 8451 ft 279 kts 318°
2026-05-06 12:20 55.78413 12.52981 9053 ft 281 kts 317°
2026-05-06 12:21 55.80339 12.49864 10128 ft 287 kts 316°
2026-05-06 12:21 55.81872 12.47363 10373 ft 310 kts 316°
2026-05-06 12:21 55.83520 12.44654 10600 ft 332 kts 315°
2026-05-06 12:21 55.85231 12.41837 11187 ft 340 kts 315°
2026-05-06 12:22 55.86384 12.39941 11663 ft 342 kts 315°
2026-05-06 12:22 55.88143 12.37063 12351 ft 346 kts 317°
2026-05-06 12:22 55.90104 12.34513 13024 ft 353 kts 328°
2026-05-06 12:22 55.92353 12.32680 13718 ft 359 kts 339°
2026-05-06 12:23 55.94786 12.31488 14338 ft 364 kts 343°